• în Republica Moldova
  • Lista ţărilor
  • Pe 7 zile
  • Temperatura apei
  • Hartă satelitară
  • Meteo pe hartă
  • Widget-uri
  • user-avatar
    Intrare

    Meteo pe oră la Starye Vyselki

    Astăzi, 16 August, Joi

    Timp Temperatura Precipitaţii Vânt Presiune Umiditate
    00:00 +20°C° 0 mm 2 m/s 738 mmHg 83%
    01:00 +20°C° 0,1 mm 2 m/s 738 mmHg 85%
    02:00 +19°C° 0,1 mm 2 m/s 738 mmHg 88%
    03:00 +18°C° 0 mm 2 m/s 738 mmHg 92%
    04:00 +18°C° 0 mm 2 m/s 739 mmHg 92%
    05:00 +18°C° 0 mm 2 m/s 739 mmHg 93%
    06:00 +18°C° 0 mm 2 m/s 739 mmHg 93%
    07:00 +19°C° 0 mm 2 m/s 739 mmHg 87%
    08:00 +21°C° 0 mm 2 m/s 740 mmHg 82%
    09:00 +22°C° 0 mm 3 m/s 740 mmHg 74%
    10:00 +24°C° 0 mm 3 m/s 740 mmHg 69%
    11:00 +25°C° 0 mm 3 m/s 740 mmHg 63%
    12:00 +26°C° 0 mm 3 m/s 740 mmHg 57%
    13:00 +26°C° 0,1 mm 3 m/s 740 mmHg 57%
    14:00 +26°C° 0,1 mm 3 m/s 740 mmHg 57%
    15:00 +27°C° 0,1 mm 3 m/s 740 mmHg 57%
    16:00 +26°C° 0,6 mm 3 m/s 740 mmHg 62%
    17:00 +25°C° 0,6 mm 2 m/s 740 mmHg 67%
    18:00 +24°C° 0,6 mm 2 m/s 740 mmHg 72%
    19:00 +23°C° 0,2 mm 2 m/s 741 mmHg 77%
    20:00 +21°C° 0,2 mm 2 m/s 741 mmHg 82%
    21:00 +19°C° 0,2 mm 2 m/s 741 mmHg 87%
    22:00 +19°C° 0 mm 2 m/s 741 mmHg 89%
    23:00 +18°C° 0 mm 2 m/s 741 mmHg 90%

    Mâine, 17 August, Vineri

    Timp Temperatura Precipitaţii Vânt Presiune Umiditate
    00:00 +18°C° 0 mm 2 m/s 742 mmHg 92%
    01:00 +17°C° 0 mm 3 m/s 742 mmHg 93%
    02:00 +17°C° 0 mm 3 m/s 742 mmHg 94%
    03:00 +16°C° 0 mm 3 m/s 742 mmHg 95%
    04:00 +16°C° 0 mm 3 m/s 742 mmHg 96%
    05:00 +16°C° 0 mm 3 m/s 743 mmHg 96%
    06:00 +14°C° 0 mm 3 m/s 743 mmHg 96%
    07:00 +16°C° 0 mm 3 m/s 743 mmHg 90%
    08:00 +18°C° 0 mm 4 m/s 743 mmHg 84%
    09:00 +19°C° 0 mm 4 m/s 744 mmHg 79%
    10:00 +20°C° 0 mm 4 m/s 744 mmHg 73%
    11:00 +21°C° 0 mm 4 m/s 744 mmHg 67%
    12:00 +22°C° 0 mm 5 m/s 744 mmHg 61%
    13:00 +23°C° 0 mm 4 m/s 744 mmHg 59%
    14:00 +23°C° 0 mm 4 m/s 744 mmHg 57%
    15:00 +25°C° 0 mm 4 m/s 744 mmHg 55%
    16:00 +23°C° 0 mm 4 m/s 744 mmHg 58%
    17:00 +24°C° 0 mm 3 m/s 743 mmHg 60%
    18:00 +24°C° 0 mm 3 m/s 743 mmHg 63%
    19:00 +21°C° 0 mm 3 m/s 743 mmHg 66%
    20:00 +19°C° 0 mm 2 m/s 744 mmHg 69%
    21:00 +18°C° 0 mm 2 m/s 744 mmHg 72%
    22:00 +17°C° 0 mm 2 m/s 744 mmHg 72%
    23:00 +17°C° 0 mm 2 m/s 744 mmHg 73%

    Poimâine, 18 August, Sâmbătă

    Timp Temperatura Precipitaţii Vânt Presiune Umiditate
    00:00 +16°C° 0 mm 2 m/s 744 mmHg 74%
    01:00 +16°C° 0 mm 2 m/s 744 mmHg 75%
    02:00 +15°C° 0 mm 2 m/s 744 mmHg 77%
    03:00 +15°C° 0 mm 2 m/s 744 mmHg 79%
    04:00 +15°C° 0 mm 2 m/s 744 mmHg 81%
    05:00 +14°C° 0 mm 2 m/s 745 mmHg 83%
    06:00 +14°C° 0 mm 2 m/s 745 mmHg 85%
    07:00 +16°C° 0 mm 2 m/s 745 mmHg 79%
    08:00 +18°C° 0 mm 2 m/s 745 mmHg 74%
    09:00 +20°C° 0 mm 3 m/s 745 mmHg 68%
    10:00 +21°C° 0 mm 3 m/s 745 mmHg 63%
    11:00 +22°C° 0 mm 3 m/s 745 mmHg 58%
    12:00 +24°C° 0 mm 3 m/s 745 mmHg 53%
    13:00 +24°C° 0 mm 3 m/s 745 mmHg 51%
    14:00 +24°C° 0 mm 3 m/s 745 mmHg 50%
    15:00 +25°C° 0 mm 3 m/s 745 mmHg 49%
    16:00 +24°C° 0 mm 3 m/s 744 mmHg 52%
    17:00 +24°C° 0 mm 2 m/s 744 mmHg 55%
    18:00 +24°C° 0 mm 2 m/s 744 mmHg 59%
    19:00 +21°C° 0 mm 2 m/s 744 mmHg 61%
    20:00 +19°C° 0 mm 2 m/s 744 mmHg 63%
    21:00 +18°C° 0 mm 2 m/s 744 mmHg 66%
    22:00 +17°C° 0 mm 2 m/s 744 mmHg 67%
    23:00 +18°C° 0 mm 1 m/s 745 mmHg 68%

    19 August, Duminică

    Timp Temperatura Precipitaţii Vânt Presiune Umiditate
    00:00 +16°C° 0 mm 1 m/s 745 mmHg 69%
    01:00 +16°C° 0 mm 1 m/s 745 mmHg 70%
    02:00 +15°C° 0 mm 1 m/s 745 mmHg 71%
    03:00 +15°C° 0 mm 2 m/s 745 mmHg 72%
    04:00 +15°C° 0 mm 2 m/s 745 mmHg 74%
    05:00 +15°C° 0 mm 2 m/s 745 mmHg 75%
    06:00 +14°C° 0 mm 2 m/s 745 mmHg 77%
    07:00 +16°C° 0 mm 2 m/s 745 mmHg 72%
    08:00 +18°C° 0 mm 2 m/s 745 mmHg 68%
    09:00 +20°C° 0 mm 3 m/s 745 mmHg 63%
    10:00 +21°C° 0 mm 3 m/s 745 mmHg 59%
    11:00 +22°C° 0 mm 3 m/s 744 mmHg 56%
    12:00 +23°C° 0 mm 4 m/s 744 mmHg 52%
    13:00 +25°C° 0 mm 3 m/s 744 mmHg 51%
    14:00 +25°C° 0 mm 3 m/s 744 mmHg 50%
    15:00 +25°C° 0 mm 3 m/s 743 mmHg 50%
    16:00 +25°C° 0 mm 3 m/s 743 mmHg 53%
    17:00 +24°C° 0 mm 3 m/s 743 mmHg 57%
    18:00 +24°C° 0 mm 2 m/s 743 mmHg 61%
    19:00 +21°C° 0 mm 2 m/s 743 mmHg 63%
    20:00 +20°C° 0 mm 2 m/s 742 mmHg 66%
    21:00 +18°C° 0 mm 2 m/s 742 mmHg 69%
    22:00 +17°C° 0 mm 2 m/s 742 mmHg 69%
    23:00 +17°C° 0 mm 3 m/s 742 mmHg 70%

    20 August, Luni

    Timp Temperatura Precipitaţii Vânt Presiune Umiditate
    00:00 +16°C° 0 mm 3 m/s 742 mmHg 70%
    01:00 +16°C° 0 mm 3 m/s 742 mmHg 71%
    02:00 +14°C° 0 mm 3 m/s 742 mmHg 71%
    03:00 +14°C° 0 mm 3 m/s 742 mmHg 71%
    04:00 +14°C° 0 mm 3 m/s 742 mmHg 72%
    05:00 +14°C° 0 mm 3 m/s 741 mmHg 73%
    06:00 +13°C° 0 mm 3 m/s 741 mmHg 75%
    07:00 +16°C° 0 mm 3 m/s 742 mmHg 71%
    08:00 +18°C° 0 mm 3 m/s 742 mmHg 68%
    09:00 +20°C° 0 mm 4 m/s 742 mmHg 65%
    10:00 +21°C° 0 mm 4 m/s 742 mmHg 61%
    11:00 +23°C° 0 mm 4 m/s 742 mmHg 56%
    12:00 +25°C° 0 mm 4 m/s 742 mmHg 52%
    13:00 +25°C° 0 mm 4 m/s 741 mmHg 51%
    14:00 +26°C° 0 mm 5 m/s 741 mmHg 50%
    15:00 +26°C° 0 mm 5 m/s 741 mmHg 49%
    16:00 +26°C° 0 mm 4 m/s 741 mmHg 53%
    17:00 +25°C° 0 mm 3 m/s 741 mmHg 57%
    18:00 +25°C° 0 mm 3 m/s 741 mmHg 61%
    19:00 +22°C° 0 mm 3 m/s 741 mmHg 63%
    20:00 +21°C° 0 mm 3 m/s 741 mmHg 66%
    21:00 +19°C° 0 mm 3 m/s 741 mmHg 68%
    22:00 +19°C° 0,1 mm 3 m/s 741 mmHg 68%
    23:00 +18°C° 0,1 mm 3 m/s 741 mmHg 69%

    21 August, Marţi

    Timp Temperatura Precipitaţii Vânt Presiune Umiditate
    00:00 +18°C° 0,1 mm 3 m/s 741 mmHg 69%
    01:00 +17°C° 0,3 mm 3 m/s 741 mmHg 71%
    02:00 +17°C° 0,3 mm 3 m/s 741 mmHg 74%
    03:00 +16°C° 0,3 mm 3 m/s 741 mmHg 76%
    04:00 +16°C° 0,2 mm 3 m/s 741 mmHg 79%
    05:00 +16°C° 0,2 mm 2 m/s 741 mmHg 82%
    06:00 +16°C° 0,2 mm 2 m/s 741 mmHg 84%
    07:00 +17°C° 0,1 mm 2 m/s 741 mmHg 82%
    08:00 +19°C° 0,1 mm 2 m/s 741 mmHg 79%
    09:00 +20°C° 0,1 mm 2 m/s 741 mmHg 76%
    10:00 +21°C° 0,1 mm 3 m/s 741 mmHg 72%
    11:00 +24°C° 0,1 mm 3 m/s 741 mmHg 68%
    12:00 +25°C° 0,1 mm 3 m/s 741 mmHg 63%
    13:00 +26°C° 0,1 mm 3 m/s 741 mmHg 62%
    14:00 +26°C° 0,1 mm 3 m/s 741 mmHg 60%
    15:00 +26°C° 0,1 mm 4 m/s 741 mmHg 58%
    16:00 +26°C° 0,1 mm 3 m/s 741 mmHg 61%
    17:00 +26°C° 0,1 mm 3 m/s 741 mmHg 63%
    18:00 +25°C° 0,1 mm 2 m/s 740 mmHg 66%
    19:00 +24°C° 0 mm 2 m/s 741 mmHg 70%
    20:00 +21°C° 0 mm 2 m/s 741 mmHg 74%
    21:00 +20°C° 0 mm 1 m/s 741 mmHg 78%
    22:00 +20°C° 0 mm 1 m/s 741 mmHg 80%
    23:00 +18°C° 0 mm 2 m/s 741 mmHg 81%
    Arată mai mult